This demonstration page uses our WeatherBlox Daily Observations layout. Learn more.

Left ArrowRight Arrow

38.80484, -77.04692

Hourly Observations for July 22, 2018

Temp ( °F °C ) Dew Point ( °F °C ) Humidity (%) Winds ( mph kmh ) Pressure ( in mb ) Visibility ( mi km ) Precip ( " mm )
12:52 am 00:52 Cloudy 68 20 63 17.2 84 84 NW 15 24 29.65 1004 10 16 0.00 0.00
1:52 am 01:52 Cloudy with Light Rain 66 18.9 61 16.1 84 84 WNW 12 19 29.67 1005 10 16 0.00 0.03
2:23 am 02:23 Mostly Cloudy 66 18.9 61 16.1 84 84 W 9 15 29.68 1005 10 16 0.00 0.03
2:35 am 02:35 Cloudy 66 18.9 61 16.1 84 84 WSW 7 11 29.68 1005 10 16 0.00 0.03
2:52 am 02:52 Cloudy 66 18.9 61 16.1 84 84 WSW 9 15 29.70 1006 10 16 0.00 0.03
3:22 am 03:22 Cloudy 66 18.9 61 16.1 84 84 WSW 7 11 29.71 1006 10 16 0.00 0.00
3:31 am 03:31 Cloudy 66 18.9 61 16.1 84 84 SW 9 15 29.71 1006 10 16 0.00 0.00
3:52 am 03:52 Cloudy 66 18.9 61 16.1 84 84 SW 7 11 29.72 1006 10 16 0.00 0.00
4:01 am 04:01 Cloudy 66 18.9 61 16.1 84 84 WSW 7 11 29.71 1006 10 16 0.00 0.00
4:11 am 04:11 Cloudy 66 18.9 61 16.1 84 84 SW 8 13 29.74 1007 10 16 0.00 0.00
4:40 am 04:40 Partly Cloudy 65 18.3 60 15.6 84 84 WSW 3 6 29.74 1007 10 16 0.00 0.00
4:52 am 04:52 Partly Cloudy 65 18.3 61 16.1 87 87 S 5 7 29.73 1007 10 16 0.00 0.00
5:52 am 05:52 Partly Cloudy 65 18.3 61 16.1 87 87 SSW 7 11 29.76 1008 10 16 0.00 0.00
6:52 am 06:52 Mostly Cloudy 66 18.9 62 16.7 87 87 WSW 3 6 29.78 1008 10 16 0.00 0.00
7:52 am 07:52 Mostly Cloudy 69 20.6 63 17.2 81 81 SSE 3 6 29.80 1009 10 16 0.00 0.00
8:52 am 08:52 Mostly Cloudy 71 21.7 64 17.8 79 79 SE 5 7 29.84 1010 10 16 0.00 0.00
8:59 am 08:59 Mostly Cloudy 71 21.7 64 17.8 79 79 SE 6 9 29.83 1010 10 16 0.00 0.00
9:52 am 09:52 Mostly Cloudy 73 22.8 65 18.3 76 76 ESE 5 7 29.85 1011 10 16 0.00 0.00
10:52 am 10:52 Cloudy 75 23.9 66 18.9 74 74 SSE 7 11 29.85 1011 10 16 0.00 0.00
11:42 am 11:42 Cloudy with Light Rain 75 23.9 68 20 79 79 E 8 13 29.83 1010 9 14 0.00 0.03
11:52 am 11:52 Mostly Cloudy with Light Rain 75 23.9 68 20 79 79 E 7 11 29.84 1011 10 16 0.00 0.03
12:52 pm 12:52 Cloudy 78 25.6 68 20 71 71 NNE 3 6 29.83 1010 10 16 0.00 0.03
1:03 pm 13:03 Cloudy with Nearby Thunderstorms 78 25.6 69 20.6 74 74 ESE 10 17 29.83 1010 10 16 0.00 0.00
1:19 pm 13:19 Cloudy with Heavy Rain 76 24.4 70 21.1 82 82 E 9 15 29.83 1010 3 5 0.03 0.76
1:27 pm 13:27 Cloudy with Light Rain 76 24.4 70 21.1 82 82 E 10 17 29.83 1010 5 8 0.04 1.02
1:52 pm 13:52 Cloudy 76 24.4 70 21.1 82 82 NNW 5 7 29.81 1010 10 16 0.05 1.27
2:02 pm 14:02 Cloudy with Light Rain 76 24.4 69 20.6 79 79 NNW 5 7 29.80 1009 10 16 0.00 0.03
2:08 pm 14:08 Cloudy with Heavy Rain 75 23.9 69 20.6 82 82 Calm 29.83 1010 2 2 0.03 0.76
2:10 pm 14:10 Cloudy with Heavy Rain 75 23.9 69 20.6 82 82 WSW 10 17 29.83 1010 1 2 0.06 1.52
2:13 pm 14:13 Cloudy with Heavy Rain 75 23.9 70 21.1 84 84 W 13 20 29.83 1010 1 1 0.16 4.06
2:27 pm 14:27 Cloudy with Rain 72 22.2 70 21.1 94 94 Calm 29.83 1010 1 1 0.82 20.83
2:33 pm 14:33 Cloudy with Rain 74 23.3 70 21.1 88 88 SE 6 9 29.83 1010 3 4 0.83 21.08
2:37 pm 14:37 Cloudy with Light Rain 74 23.3 70 21.1 88 88 ESE 7 11 29.83 1010 6 10 0.84 21.34
2:52 pm 14:52 Mostly Cloudy 76 24.4 72 22.2 88 88 ENE 5 7 29.83 1010 10 16 0.84 21.34
3:52 pm 15:52 Mostly Cloudy 78 25.6 71 21.7 79 79 N 3 6 29.83 1010 10 16 0.00 0.00
4:50 pm 16:50 Mostly Cloudy with Nearby Thunderstorms 82 28 72 22 70 70 Calm 29.80 1009 10 16 0.00 0.00
4:52 pm 16:52 Mostly Cloudy with Nearby Thunderstorms 82 27.8 72 22.2 72 72 Calm 29.81 1010 10 16 0.00 0.00
5:10 pm 17:10 Mostly Cloudy with Thunderstorms 81 27.2 71 21.7 72 72 ESE 3 6 29.83 1010 10 16 0.00 0.00
5:38 pm 17:38 Mostly Cloudy with Nearby Thunderstorms 82 27.8 72 22.2 72 72 E 7 11 29.83 1010 10 16 0.00 0.03
5:41 pm 17:41 Mostly Cloudy with Nearby Thunderstorms 82 27.8 72 22.2 72 72 ENE 7 11 29.83 1010 10 16 0.00 0.03
5:52 pm 17:52 Mostly Cloudy with Light Rain 80 26.7 71 21.7 74 74 E 10 17 29.81 1010 10 16 0.00 0.03
5:56 pm 17:56 Mostly Cloudy 80 26.7 71 21.7 74 74 E 13 20 29.83 1010 10 16 0.00 0.03
6:03 pm 18:03 Mostly Cloudy with Light Rain 78 25.6 71 21.7 79 79 SE 15 24 29.83 1010 5 8 0.00 0.03
6:19 pm 18:19 Mostly Cloudy 76 24.4 72 22.2 88 88 ESE 5 7 29.83 1010 10 16 0.01 0.25
6:52 pm 18:52 Mostly Cloudy with Light Rain 75 23.9 70 21.1 84 84 SE 14 22 29.84 1011 10 16 0.01 0.25
7:52 pm 19:52 Mostly Cloudy 75 23.9 71 21.7 88 88 NE 5 7 29.84 1011 10 16 0.01 0.25
8:52 pm 20:52 Cloudy with Light Rain 74 23.3 70 21.1 88 88 NNE 5 7 29.86 1011 10 16 0.01 0.25
9:06 pm 21:06 Cloudy 74 23.3 70 21.1 88 88 N 3 6 29.88 1012 10 16 0.00 0.03
9:08 pm 21:08 Cloudy 74 23.3 70 21.1 88 88 N 3 6 29.88 1012 10 16 0.00 0.03
9:41 pm 21:41 Cloudy 77 25 70 21.1 79 79 SW 6 9 29.88 1012 10 16 0.00 0.03
9:44 pm 21:44 Cloudy 77 25 70 21.1 79 79 VRB 3 6 29.88 1012 10 16 0.00 0.03
9:52 pm 21:52 Cloudy with Light Rain 76 24.4 70 21.1 82 82 VRB 5 7 29.88 1012 10 16 0.00 0.03
9:54 pm 21:54 Cloudy with Light Rain 76 24.4 70 21.1 82 82 NNE 6 9 29.88 1012 10 16 0.00 0.03
10:19 pm 22:19 Cloudy with Heavy Rain 75 23.9 71 21.7 88 88 ENE 7 11 29.88 1012 3 4 0.19 4.83
10:29 pm 22:29 Cloudy with Light Rain 74 23.3 71 21.7 91 91 NE 7 11 29.88 1012 8 13 0.22 5.59
10:52 pm 22:52 Cloudy 75 23.9 71 21.7 88 88 NE 7 11 29.88 1012 10 16 0.22 5.59
11:21 pm 23:21 Cloudy with Heavy Rain 75 23.9 71 21.7 88 88 NNE 5 7 29.88 1012 4 6 0.03 0.76
11:52 pm 23:52 Cloudy with Light Rain 75 23.9 72 22.2 90 90 Calm 29.88 1012 10 16 0.05 1.27
11:55 pm 23:55 Cloudy with Thunderstorms 75 23.9 72 22.2 90 90 Calm 29.88 1012 4 6 0.01 0.25

Powered by AerisWeather